Weather History for Brady, TX

Change the Weather History Date:

Monday, March 24, 2014

  Actual Average (KJCT) Record (KJCT)
Temperature  
Mean Temperature 56 °F -  
Max Temperature 69 °F 69 °F 89 °F (1998)
Min Temperature 42 °F 45 °F 26 °F (2006)
Degree Days  
Heating Degree Days 10    
Growing Degree Days 6 (Base 50)    
Moisture  
Dew Point 43 °F    
Average Humidity 69    
Maximum Humidity 87    
Minimum Humidity 46    
Precipitation  
Precipitation 0.00 in - - ()
Sea Level Pressure  
Sea Level Pressure 30.12 in    
Wind  
Wind Speed 2 mph (ENE)    
Max Wind Speed 7 mph    
Max Gust Speed -    
Visibility 10 miles    
Events      
Averages and records for this station are not official NWS values.
T = Trace of Precipitation, MM = Missing Value Source: NWS Daily Summary

Daily Weather History Graph

Daily Weather History Graph

Search for Another Location

Airport:

Trip Planner

Search our weather history database for the weather conditions in past years. The results will help you decide how hot, cold, wet, or windy it might be!

Date:

Astronomy

Mar. 24, 2014 Rise Set
Actual Time 7:36 AM CDT 7:51 PM CDT
Civil Twilight 7:11 AM CDT 8:15 PM CDT
Nautical Twilight 6:43 AM CDT 8:43 PM CDT
Astronomical Twilight 6:14 AM CDT 9:12 PM CDT
Moon 2:46 AM CDT (3/24) 1:39 PM CDT (3/24)
Length of Visible Light 13h 03m
Length of Day
12h 15m
Last Quarter, 43% of the Moon is Illuminated
Mar 24
Last Quarter
Mar 30
New
Apr 7
First Quarter
Apr 15
Full
Apr 22
Last Quarter

Hourly Weather History & Observations

Time (CDT) Temp. Windchill Dew Point Humidity Pressure Visibility Wind Dir Wind Speed Gust Speed Precip Events Conditions
1:00 AM 44.6 °F - 37.4 °F 76% 30.22 in 10.0 mi Calm Calm - N/A   Overcast
1:15 AM 44.6 °F - 37.4 °F 76% 30.22 in 10.0 mi Calm Calm - N/A   Overcast
1:55 AM 42.8 °F - 37.4 °F 81% 30.21 in 10.0 mi Calm Calm - N/A   Clear
2:15 AM 42.8 °F - 37.4 °F 81% 30.20 in 10.0 mi Calm Calm - N/A   Partly Cloudy
2:40 AM 42.8 °F - 39.2 °F 87% 30.20 in 10.0 mi Calm Calm - N/A   Overcast
2:55 AM 44.6 °F - 39.2 °F 81% 30.19 in 10.0 mi Calm Calm - N/A   Overcast
3:15 AM 44.6 °F - 37.4 °F 76% 30.18 in 10.0 mi Calm Calm - N/A   Overcast
3:35 AM 44.6 °F - 39.2 °F 81% 30.17 in 10.0 mi Calm Calm - N/A   Overcast
3:55 AM 42.8 °F - 39.2 °F 87% 30.17 in 10.0 mi Calm Calm - N/A   Overcast
4:15 AM 42.8 °F - 39.2 °F 87% 30.16 in 10.0 mi Calm Calm - N/A   Mostly Cloudy
4:35 AM 42.8 °F - 39.2 °F 87% 30.15 in 10.0 mi Calm Calm - N/A   Mostly Cloudy
4:55 AM 42.8 °F - 39.2 °F 87% 30.15 in 10.0 mi Calm Calm - N/A   Partly Cloudy
5:15 AM 42.8 °F - 39.2 °F 87% 30.15 in 10.0 mi Calm Calm - N/A   Clear
5:35 AM 42.8 °F - 39.2 °F 87% 30.16 in 10.0 mi Calm Calm - N/A   Mostly Cloudy
6:00 AM 42.8 °F - 39.2 °F 87% 30.15 in 10.0 mi Calm Calm - N/A   Overcast
6:15 AM 44.6 °F - 39.2 °F 81% 30.16 in 10.0 mi Calm Calm - N/A   Overcast
6:35 AM 44.6 °F - 39.2 °F 81% 30.16 in 10.0 mi Calm Calm - N/A   Overcast
6:55 AM 44.6 °F - 39.2 °F 81% 30.16 in 10.0 mi Calm Calm - N/A   Overcast
7:15 AM 44.6 °F - 39.2 °F 81% 30.16 in 10.0 mi Calm Calm - N/A   Overcast
7:35 AM 44.6 °F - 39.2 °F 81% 30.16 in 10.0 mi Calm Calm - N/A   Overcast
7:55 AM 44.6 °F - 41.0 °F 87% 30.16 in 10.0 mi Calm Calm - N/A   Overcast
8:15 AM 44.6 °F - 39.2 °F 81% 30.16 in 10.0 mi Calm Calm - N/A   Overcast
8:35 AM 44.6 °F - 35.6 °F 71% 30.16 in 10.0 mi Calm Calm - N/A   Overcast
8:55 AM 44.6 °F 43.1 °F 37.4 °F 76% 30.16 in 10.0 mi East 3.5 mph - N/A   Overcast
9:15 AM 46.4 °F - 35.6 °F 66% 30.16 in 10.0 mi Calm Calm - N/A   Overcast
9:35 AM 46.4 °F 45.2 °F 37.4 °F 71% 30.16 in 10.0 mi East 3.5 mph - N/A   Overcast
9:55 AM 46.4 °F 44.3 °F 37.4 °F 71% 30.15 in 10.0 mi East 4.6 mph - N/A   Overcast
10:15 AM 48.2 °F - 39.2 °F 71% 30.15 in 10.0 mi Variable 4.6 mph - N/A   Overcast
11:00 AM 50.0 °F - 39.2 °F 66% 30.14 in 10.0 mi ESE 3.5 mph - N/A   Overcast
11:15 AM 51.8 °F - 39.2 °F 62% 30.13 in 10.0 mi SE 4.6 mph - N/A   Overcast
11:35 AM 53.6 °F - 41.0 °F 62% 30.13 in 10.0 mi ESE 3.5 mph - N/A   Mostly Cloudy
12:00 PM 53.6 °F - 42.8 °F 67% 30.12 in 10.0 mi Calm Calm - N/A   Overcast
12:15 PM 53.6 °F - 42.8 °F 67% 30.11 in 10.0 mi Calm Calm - N/A   Overcast
12:35 PM 55.4 °F - 42.8 °F 63% 30.11 in 10.0 mi Variable 3.5 mph - N/A   Overcast
1:15 PM 59.0 °F - 44.6 °F 59% 30.09 in 10.0 mi SSW 4.6 mph - N/A   Overcast
1:35 PM 60.8 °F - 44.6 °F 55% 30.08 in 10.0 mi SSW 3.5 mph - N/A   Overcast
2:00 PM 60.8 °F - 46.4 °F 59% 30.08 in 10.0 mi Calm Calm - N/A   Overcast
2:20 PM 60.8 °F - 46.4 °F 59% 30.07 in 10.0 mi Calm Calm - N/A   Overcast
2:35 PM 62.6 °F - 46.4 °F 55% 30.06 in 10.0 mi WSW 4.6 mph - N/A   Overcast
2:55 PM 62.6 °F - 46.4 °F 55% 30.05 in 10.0 mi South 4.6 mph - N/A   Mostly Cloudy
3:15 PM 64.4 °F - 48.2 °F 56% 30.04 in 10.0 mi Variable 3.5 mph - N/A   Clear
3:35 PM 64.4 °F - 48.2 °F 56% 30.03 in 10.0 mi NW 3.5 mph - N/A   Clear
3:55 PM 64.4 °F - 48.2 °F 56% 30.03 in 10.0 mi NNW 5.8 mph - N/A   Mostly Cloudy
4:15 PM 64.4 °F - 48.2 °F 56% 30.03 in 10.0 mi North 4.6 mph - N/A   Overcast
4:35 PM 66.2 °F - 48.2 °F 52% 30.02 in 10.0 mi North 3.5 mph - N/A   Scattered Clouds
4:55 PM 66.2 °F - 48.2 °F 52% 30.02 in 10.0 mi NW 6.9 mph - N/A   Clear
5:15 PM 66.2 °F - 48.2 °F 52% 30.02 in 10.0 mi North 4.6 mph - N/A   Partly Cloudy
5:35 PM 66.2 °F - 48.2 °F 52% 30.02 in 10.0 mi NNW 3.5 mph - N/A   Clear
5:55 PM 68.0 °F - 48.2 °F 49% 30.02 in 10.0 mi NW 4.6 mph - N/A   Clear
6:15 PM 69.8 °F - 48.2 °F 46% 30.03 in 10.0 mi West 4.6 mph - N/A   Clear
6:35 PM 68.0 °F - 48.2 °F 49% 30.03 in 10.0 mi Variable 4.6 mph - N/A   Clear
6:55 PM 66.2 °F - 48.2 °F 52% 30.04 in 10.0 mi NE 5.8 mph - N/A   Clear
7:15 PM 64.4 °F - 48.2 °F 56% 30.04 in 10.0 mi ENE 6.9 mph - N/A   Clear
7:35 PM 64.4 °F - 48.2 °F 56% 30.06 in 10.0 mi ENE 6.9 mph - N/A   Clear
7:55 PM 62.6 °F - 48.2 °F 59% 30.06 in 10.0 mi ENE 6.9 mph - N/A   Clear
8:15 PM 60.8 °F - 48.2 °F 63% 30.07 in 10.0 mi ENE 5.8 mph - N/A   Clear
8:35 PM 59.0 °F - 48.2 °F 67% 30.08 in 10.0 mi ENE 5.8 mph - N/A   Clear
8:55 PM 59.0 °F - 48.2 °F 67% 30.08 in 10.0 mi East 4.6 mph - N/A   Clear
9:15 PM 57.2 °F - 48.2 °F 72% 30.09 in 10.0 mi East 3.5 mph - N/A   Clear
9:35 PM 57.2 °F - 48.2 °F 72% 30.10 in 10.0 mi East 3.5 mph - N/A   Clear
9:55 PM 57.2 °F - 48.2 °F 72% 30.12 in 10.0 mi Calm Calm - N/A   Clear
10:15 PM 55.4 °F - 48.2 °F 77% 30.13 in 10.0 mi East 4.6 mph - N/A   Clear
10:35 PM 57.2 °F - 46.4 °F 67% 30.13 in 10.0 mi ENE 4.6 mph - N/A   Clear
10:55 PM 55.4 °F - 46.4 °F 72% 30.14 in 10.0 mi East 4.6 mph - N/A   Clear
11:15 PM 55.4 °F - 46.4 °F 72% 30.14 in 10.0 mi East 3.5 mph - N/A   Clear
11:35 PM 53.6 °F - 46.4 °F 77% 30.14 in 10.0 mi East 4.6 mph - N/A   Clear
11:55 PM 53.6 °F - 46.4 °F 77% 30.14 in 10.0 mi East 3.5 mph - N/A   Clear